• In Romania
  • List of Countries
  • For 7 days
  • Water Temperature
  • Satellite Maps
  • Weather Map
  • Weather Widgets
  • user-avatar
    Login

    Hourly Weather Porech

    Today, 25 September, Tuesday

    Time Temperature Precipitation Wind Pressure Humidity
    00:00 +13°C° 0 mm 9 mps 771 mmHg 49%
    01:00 +12°C° 0 mm 9 mps 771 mmHg 48%
    02:00 +12°C° 0 mm 9 mps 771 mmHg 50%
    03:00 +11°C° 0 mm 8 mps 771 mmHg 52%
    04:00 +11°C° 0 mm 8 mps 771 mmHg 54%
    05:00 +11°C° 0 mm 8 mps 771 mmHg 55%
    06:00 +11°C° 0 mm 8 mps 772 mmHg 56%
    07:00 +12°C° 0 mm 7 mps 772 mmHg 57%
    08:00 +14°C° 0 mm 7 mps 772 mmHg 52%
    09:00 +16°C° 0 mm 7 mps 772 mmHg 47%
    10:00 +17°C° 0 mm 7 mps 772 mmHg 42%
    11:00 +17°C° 0 mm 7 mps 772 mmHg 42%
    12:00 +19°C° 0 mm 6 mps 772 mmHg 42%
    13:00 +19°C° 0 mm 6 mps 772 mmHg 42%
    14:00 +19°C° 0 mm 6 mps 772 mmHg 42%
    15:00 +19°C° 0 mm 6 mps 772 mmHg 42%
    16:00 +17°C° 0 mm 6 mps 772 mmHg 43%
    17:00 +16°C° 0 mm 6 mps 773 mmHg 45%
    18:00 +14°C° 0 mm 7 mps 773 mmHg 46%
    19:00 +12°C° 0 mm 7 mps 774 mmHg 48%
    20:00 +12°C° 0 mm 8 mps 774 mmHg 48%
    21:00 +11°C° 0 mm 8 mps 775 mmHg 48%
    22:00 +11°C° 0 mm 9 mps 776 mmHg 48%
    23:00 +11°C° 0 mm 9 mps 776 mmHg 49%

    Tomorrow, 26 September, Wednesday

    Time Temperature Precipitation Wind Pressure Humidity
    00:00 +10°C° 0 mm 9 mps 776 mmHg 51%
    01:00 +10°C° 0 mm 9 mps 777 mmHg 52%
    02:00 +10°C° 0 mm 9 mps 777 mmHg 54%
    03:00 +8°C° 0 mm 9 mps 777 mmHg 56%
    04:00 +8°C° 0 mm 9 mps 777 mmHg 57%
    05:00 +9°C° 0 mm 8 mps 777 mmHg 58%
    06:00 +9°C° 0 mm 8 mps 777 mmHg 59%
    07:00 +9°C° 0 mm 7 mps 777 mmHg 60%
    08:00 +11°C° 0 mm 6 mps 777 mmHg 53%
    09:00 +14°C° 0 mm 6 mps 777 mmHg 47%
    10:00 +15°C° 0 mm 5 mps 776 mmHg 40%
    11:00 +18°C° 0 mm 4 mps 776 mmHg 37%
    12:00 +19°C° 0 mm 4 mps 776 mmHg 34%
    13:00 +20°C° 0 mm 3 mps 775 mmHg 32%
    14:00 +20°C° 0 mm 3 mps 775 mmHg 33%
    15:00 +20°C° 0 mm 3 mps 775 mmHg 34%
    16:00 +20°C° 0 mm 3 mps 774 mmHg 35%
    17:00 +18°C° 0 mm 3 mps 774 mmHg 41%
    18:00 +16°C° 0 mm 3 mps 774 mmHg 47%
    19:00 +13°C° 0 mm 3 mps 774 mmHg 54%
    20:00 +13°C° 0 mm 3 mps 775 mmHg 56%
    21:00 +12°C° 0 mm 3 mps 775 mmHg 58%
    22:00 +12°C° 0 mm 3 mps 775 mmHg 60%
    23:00 +12°C° 0 mm 3 mps 774 mmHg 57%

    Day after tomorrow, 27 September, Thursday

    Time Temperature Precipitation Wind Pressure Humidity
    00:00 +12°C° 0 mm 3 mps 774 mmHg 55%
    01:00 +12°C° 0 mm 3 mps 774 mmHg 53%
    02:00 +12°C° 0 mm 3 mps 774 mmHg 51%
    03:00 +12°C° 0 mm 3 mps 773 mmHg 50%
    04:00 +12°C° 0 mm 4 mps 773 mmHg 48%
    05:00 +12°C° 0 mm 4 mps 773 mmHg 48%
    06:00 +13°C° 0 mm 4 mps 772 mmHg 48%
    07:00 +13°C° 0 mm 4 mps 772 mmHg 47%
    08:00 +17°C° 0 mm 4 mps 772 mmHg 42%
    09:00 +20°C° 0 mm 3 mps 772 mmHg 36%
    10:00 +22°C° 0 mm 3 mps 772 mmHg 31%
    11:00 +25°C° 0 mm 3 mps 771 mmHg 29%
    12:00 +26°C° 0 mm 3 mps 771 mmHg 27%
    13:00 +27°C° 0 mm 3 mps 770 mmHg 24%
    14:00 +27°C° 0 mm 3 mps 770 mmHg 28%
    15:00 +27°C° 0 mm 3 mps 769 mmHg 32%
    16:00 +26°C° 0 mm 3 mps 769 mmHg 35%
    17:00 +24°C° 0 mm 3 mps 769 mmHg 40%
    18:00 +20°C° 0 mm 3 mps 769 mmHg 44%
    19:00 +18°C° 0 mm 3 mps 768 mmHg 49%
    20:00 +18°C° 0 mm 3 mps 768 mmHg 47%
    21:00 +17°C° 0 mm 4 mps 768 mmHg 45%
    22:00 +17°C° 0 mm 4 mps 768 mmHg 43%
    23:00 +17°C° 0 mm 4 mps 767 mmHg 43%

    28 September, Friday

    Time Temperature Precipitation Wind Pressure Humidity
    00:00 +16°C° 0 mm 3 mps 767 mmHg 42%
    01:00 +16°C° 0 mm 3 mps 767 mmHg 42%
    02:00 +16°C° 0 mm 3 mps 766 mmHg 43%
    03:00 +16°C° 0 mm 3 mps 766 mmHg 44%
    04:00 +16°C° 0 mm 3 mps 765 mmHg 45%
    05:00 +16°C° 0 mm 3 mps 765 mmHg 46%
    06:00 +16°C° 0 mm 3 mps 764 mmHg 48%
    07:00 +16°C° 0 mm 3 mps 764 mmHg 49%
    08:00 +19°C° 0 mm 3 mps 764 mmHg 43%
    09:00 +22°C° 0 mm 3 mps 763 mmHg 38%
    10:00 +25°C° 0 mm 3 mps 763 mmHg 32%
    11:00 +27°C° 0 mm 3 mps 762 mmHg 31%
    12:00 +28°C° 0 mm 3 mps 762 mmHg 30%
    13:00 +29°C° 0 mm 3 mps 761 mmHg 29%
    14:00 +28°C° 0 mm 3 mps 761 mmHg 32%
    15:00 +28°C° 0 mm 3 mps 760 mmHg 35%
    16:00 +27°C° 0 mm 3 mps 760 mmHg 39%
    17:00 +25°C° 0 mm 3 mps 760 mmHg 44%
    18:00 +22°C° 0 mm 3 mps 760 mmHg 49%
    19:00 +20°C° 0 mm 3 mps 761 mmHg 54%
    20:00 +19°C° 0 mm 3 mps 761 mmHg 54%
    21:00 +19°C° 0 mm 3 mps 761 mmHg 53%
    22:00 +18°C° 0 mm 4 mps 761 mmHg 52%
    23:00 +18°C° 0 mm 4 mps 761 mmHg 52%

    29 September, Saturday

    Time Temperature Precipitation Wind Pressure Humidity
    00:00 +18°C° 0 mm 4 mps 761 mmHg 52%
    01:00 +18°C° 0 mm 4 mps 761 mmHg 53%
    02:00 +18°C° 0 mm 4 mps 761 mmHg 53%
    03:00 +18°C° 0 mm 4 mps 761 mmHg 53%
    04:00 +18°C° 0 mm 4 mps 761 mmHg 54%
    05:00 +17°C° 0 mm 5 mps 761 mmHg 53%
    06:00 +17°C° 0 mm 5 mps 761 mmHg 52%
    07:00 +17°C° 0 mm 5 mps 761 mmHg 51%
    08:00 +20°C° 0 mm 5 mps 762 mmHg 49%
    09:00 +21°C° 0 mm 6 mps 762 mmHg 48%
    10:00 +23°C° 0 mm 6 mps 762 mmHg 46%
    11:00 +23°C° 0 mm 6 mps 762 mmHg 46%
    12:00 +24°C° 0 mm 6 mps 762 mmHg 46%
    13:00 +24°C° 0 mm 6 mps 761 mmHg 46%
    14:00 +24°C° 0 mm 6 mps 762 mmHg 48%
    15:00 +23°C° 0 mm 6 mps 762 mmHg 50%
    16:00 +23°C° 0 mm 6 mps 762 mmHg 53%
    17:00 +21°C° 0 mm 7 mps 762 mmHg 55%
    18:00 +20°C° 0 mm 8 mps 763 mmHg 57%
    19:00 +18°C° 0 mm 8 mps 763 mmHg 59%
    20:00 +17°C° 0 mm 9 mps 763 mmHg 55%
    21:00 +17°C° 0 mm 9 mps 764 mmHg 51%
    22:00 +16°C° 0 mm 9 mps 764 mmHg 46%
    23:00 +16°C° 0 mm 9 mps 764 mmHg 46%

    30 September, Sunday

    Time Temperature Precipitation Wind Pressure Humidity
    00:00 +15°C° 0 mm 8 mps 764 mmHg 46%
    01:00 +15°C° 0 mm 8 mps 764 mmHg 46%
    02:00 +14°C° 0 mm 7 mps 764 mmHg 49%
    03:00 +14°C° 0 mm 7 mps 763 mmHg 52%
    04:00 +13°C° 0 mm 6 mps 763 mmHg 55%
    05:00 +13°C° 0 mm 6 mps 763 mmHg 58%
    06:00 +13°C° 0 mm 6 mps 763 mmHg 61%
    07:00 +13°C° 0 mm 6 mps 763 mmHg 63%
    08:00 +15°C° 0 mm 5 mps 763 mmHg 58%
    09:00 +17°C° 0 mm 5 mps 763 mmHg 52%
    10:00 +19°C° 0 mm 4 mps 762 mmHg 47%
    11:00 +20°C° 0 mm 4 mps 762 mmHg 44%
    12:00 +21°C° 0 mm 3 mps 762 mmHg 41%
    13:00 +22°C° 0 mm 3 mps 761 mmHg 38%
    14:00 +23°C° 0 mm 2 mps 761 mmHg 40%
    15:00 +23°C° 0 mm 2 mps 761 mmHg 41%
    16:00 +21°C° 0 mm 2 mps 760 mmHg 43%
    17:00 +20°C° 0 mm 2 mps 761 mmHg 49%
    18:00 +18°C° 0 mm 2 mps 761 mmHg 55%
    19:00 +16°C° 0 mm 2 mps 761 mmHg 60%
    20:00 +16°C° 0 mm 2 mps 761 mmHg 62%
    21:00 +14°C° 0 mm 3 mps 761 mmHg 64%
    22:00 +14°C° 0 mm 3 mps 761 mmHg 66%
    23:00 +14°C° 0 mm 3 mps 761 mmHg 66%
    Show more